Weather History for Aurora, NE

Change the Weather History Date:

Monday, March 31, 2014

  Actual Average Record
Temperature  
Mean Temperature 48 °F -  
Max Temperature 66 °F 57 °F 138 °F (1999)
Min Temperature 29 °F 32 °F 13 °F (1987)
Degree Days  
Heating Degree Days 18    
Moisture  
Dew Point 28 °F    
Average Humidity 48    
Maximum Humidity 68    
Minimum Humidity 30    
Precipitation  
Precipitation 0.00 in - - ()
Sea Level Pressure  
Sea Level Pressure 29.62 in    
Wind  
Wind Speed 25 mph (West)    
Max Wind Speed 37 mph    
Max Gust Speed 47 mph    
Visibility 10 miles    
Events      
Averages and records for this station are not official NWS values.
T = Trace of Precipitation, MM = Missing Value Source: NWS Daily Summary

Daily Weather History Graph

Daily Weather History Graph

Search for Another Location

Airport:

Trip Planner

Search our weather history database for the weather conditions in past years. The results will help you decide how hot, cold, wet, or windy it might be!

Date:

Astronomy

Mar. 31, 2014 Rise Set
Actual Time 7:16 AM CDT 7:55 PM CDT
Civil Twilight 6:49 AM CDT 8:23 PM CDT
Nautical Twilight 6:16 AM CDT 8:56 PM CDT
Astronomical Twilight 5:43 AM CDT 9:30 PM CDT
Moon 7:40 AM CDT (3/31) 9:16 PM CDT (3/31)
Length of Visible Light 13h 34m
Length of Day
12h 38m
New Moon, 1% of the Moon is Illuminated
Mar 31
New Moon
Apr 7
First Quarter
Apr 15
Full
Apr 22
Last Quarter
Apr 29
New

Hourly Weather History & Observations

Time (CDT) Temp. Windchill Dew Point Humidity Pressure Visibility Wind Dir Wind Speed Gust Speed Precip Events Conditions
12:15 AM 65.8 °F - 34.7 °F 32% 29.52 in 10.0 mi South 24.2 mph 33.4 mph N/A   Clear
12:35 AM 65.8 °F - 34.0 °F 31% 29.51 in 10.0 mi South 21.9 mph 31.1 mph N/A   Clear
12:55 AM 66.2 °F - 33.4 °F 30% 29.50 in 10.0 mi South 24.2 mph 32.2 mph N/A   Clear
1:15 AM 65.8 °F - 33.1 °F 30% 29.49 in 10.0 mi South 24.2 mph 29.9 mph N/A   Clear
1:35 AM 64.6 °F - 32.9 °F 31% 29.49 in 10.0 mi South 18.4 mph 27.6 mph N/A   Clear
1:55 AM 63.9 °F - 33.1 °F 32% 29.48 in 10.0 mi South 23.0 mph 28.8 mph N/A   Clear
2:15 AM 63.9 °F - 33.3 °F 32% 29.47 in 10.0 mi South 21.9 mph 33.4 mph N/A   Clear
2:35 AM 64.0 °F - 33.4 °F 32% 29.46 in 10.0 mi South 21.9 mph 34.5 mph N/A   Clear
2:55 AM 64.4 °F - 33.8 °F 32% 29.44 in 10.0 mi South 21.9 mph 35.7 mph N/A   Clear
3:15 AM 64.0 °F - 34.2 °F 33% 29.43 in 10.0 mi South 21.9 mph 31.1 mph N/A   Clear
3:35 AM 62.8 °F - 34.2 °F 34% 29.41 in 10.0 mi South 21.9 mph 31.1 mph N/A   Clear
3:55 AM 61.0 °F - 34.7 °F 37% 29.41 in 10.0 mi South 18.4 mph 28.8 mph N/A   Clear
4:15 AM 60.1 °F - 35.1 °F 39% 29.40 in 10.0 mi South 20.7 mph 26.5 mph N/A   Clear
4:35 AM 59.2 °F - 35.4 °F 41% 29.39 in 10.0 mi South 16.1 mph 24.2 mph N/A   Clear
4:55 AM 58.6 °F - 35.6 °F 42% 29.39 in 10.0 mi South 18.4 mph - N/A   Clear
5:15 AM 58.1 °F - 36.1 °F 44% 29.39 in 10.0 mi South 16.1 mph 23.0 mph N/A   Clear
5:35 AM 56.7 °F - 36.1 °F 46% 29.38 in 10.0 mi South 12.7 mph - N/A   Clear
5:55 AM 56.1 °F - 36.5 °F 48% 29.37 in 10.0 mi South 15.0 mph 19.6 mph N/A   Clear
6:15 AM 55.9 °F - 36.7 °F 48% 29.37 in 10.0 mi South 13.8 mph 18.4 mph N/A   Clear
6:35 AM 58.1 °F - 37.4 °F 46% 29.35 in 10.0 mi South 18.4 mph 24.2 mph N/A   Clear
6:55 AM 58.1 °F - 37.4 °F 46% 29.34 in 10.0 mi South 16.1 mph 24.2 mph N/A   Scattered Clouds
7:15 AM 57.4 °F - 37.4 °F 47% 29.34 in 10.0 mi South 16.1 mph 21.9 mph N/A   Mostly Cloudy
7:35 AM 56.3 °F - 37.4 °F 49% 29.35 in 10.0 mi SSW 17.3 mph - N/A   Mostly Cloudy
7:55 AM 56.3 °F - 36.9 °F 48% 29.36 in 10.0 mi South 18.4 mph 24.2 mph N/A   Clear
8:15 AM 57.7 °F - 34.9 °F 42% 29.37 in 10.0 mi SW 26.5 mph 32.2 mph N/A   Clear
8:35 AM 59.0 °F - 34.0 °F 39% 29.38 in 10.0 mi WSW 20.7 mph 27.6 mph N/A   Clear
8:55 AM 59.0 °F - 35.4 °F 41% 29.39 in 10.0 mi WSW 24.2 mph 29.9 mph N/A   Clear
9:15 AM 60.8 °F - 37.0 °F 41% 29.39 in 10.0 mi West 28.8 mph 33.4 mph N/A   Clear
9:35 AM 61.5 °F - 38.1 °F 42% 29.40 in 10.0 mi West 29.9 mph 38.0 mph N/A   Clear
9:55 AM 61.7 °F - 38.8 °F 43% 29.41 in 10.0 mi West 25.3 mph 36.8 mph N/A   Clear
10:10 AM 62.1 °F - 39.6 °F 44% 29.42 in 10.0 mi West 33.4 mph 38.0 mph N/A   Clear
10:35 AM 60.4 °F - 36.9 °F 42% 29.46 in 10.0 mi WNW 33.4 mph 39.1 mph N/A   Clear
10:55 AM 54.1 °F - 37.8 °F 54% 29.49 in 10.0 mi NW 33.4 mph 38.0 mph N/A   Clear
11:15 AM 53.4 °F - 37.2 °F 54% 29.51 in 10.0 mi WNW 29.9 mph 38.0 mph N/A   Scattered Clouds
11:35 AM 51.3 °F - 36.5 °F 57% 29.53 in 10.0 mi WNW 28.8 mph 33.4 mph N/A   Overcast
11:55 AM 49.5 °F - 34.9 °F 57% 29.55 in 10.0 mi WNW 31.1 mph 40.3 mph N/A   Overcast
12:15 PM 46.0 °F 36.9 °F 32.2 °F 58% 29.56 in 10.0 mi WNW 28.8 mph 41.4 mph N/A   Overcast
12:35 PM 44.1 °F 35.0 °F 32.0 °F 63% 29.59 in 10.0 mi WNW 24.2 mph 34.5 mph N/A   Overcast
12:55 PM 43.2 °F 33.0 °F 30.9 °F 62% 29.61 in 10.0 mi WNW 28.8 mph 40.3 mph N/A   Overcast
1:15 PM 42.1 °F 31.9 °F 30.0 °F 62% 29.62 in 10.0 mi WNW 26.5 mph 39.1 mph N/A   Overcast
1:35 PM 41.0 °F 29.8 °F 28.9 °F 62% 29.64 in 10.0 mi West 29.9 mph 39.1 mph N/A   Overcast
1:55 PM 40.6 °F 30.2 °F 28.0 °F 61% 29.66 in 10.0 mi WNW 25.3 mph 38.0 mph N/A   Overcast
2:15 PM 42.3 °F 31.0 °F 26.6 °F 54% 29.66 in 10.0 mi WNW 33.4 mph 40.3 mph N/A   Overcast
2:35 PM 42.4 °F 30.8 °F 23.9 °F 48% 29.68 in 10.0 mi WNW 36.8 mph 41.4 mph N/A   Overcast
2:55 PM 40.8 °F 29.4 °F 22.3 °F 48% 29.69 in 10.0 mi WNW 31.1 mph 40.3 mph N/A   Overcast
3:15 PM 40.1 °F 29.5 °F 21.9 °F 48% 29.70 in 10.0 mi WNW 25.3 mph 34.5 mph N/A   Overcast
3:35 PM 41.5 °F 30.0 °F 21.7 °F 45% 29.71 in 10.0 mi WNW 33.4 mph 41.4 mph N/A   Overcast
3:55 PM 40.6 °F 28.8 °F 20.7 °F 45% 29.72 in 10.0 mi West 33.4 mph 42.6 mph N/A   Mostly Cloudy
4:15 PM 39.2 °F 27.0 °F 17.6 °F 42% 29.74 in 10.0 mi WNW 32.2 mph 47.2 mph N/A   Scattered Clouds
4:35 PM 38.8 °F 26.0 °F 17.6 °F 42% 29.74 in 10.0 mi NW 35.7 mph 41.4 mph N/A   Mostly Cloudy
4:55 PM 38.5 °F 25.5 °F 16.7 °F 41% 29.76 in 10.0 mi WNW 35.7 mph 44.9 mph N/A   Mostly Cloudy
5:15 PM 37.4 °F 24.2 °F 15.1 °F 40% 29.78 in 10.0 mi WNW 34.5 mph 42.6 mph N/A   Scattered Clouds
5:35 PM 35.2 °F 20.8 °F 13.5 °F 41% 29.80 in 10.0 mi WNW 36.8 mph 47.2 mph N/A   Clear
5:55 PM 34.2 °F 19.9 °F 13.6 °F 43% 29.81 in 10.0 mi WNW 33.4 mph 41.4 mph N/A   Clear
6:15 PM 32.2 °F 16.6 °F 12.9 °F 45% 29.83 in 10.0 mi NW 36.8 mph 46.0 mph N/A   Scattered Clouds
6:35 PM 32.0 °F 17.2 °F 13.8 °F 47% 29.84 in 10.0 mi WNW 32.2 mph 41.4 mph N/A   Mostly Cloudy
6:55 PM 31.1 °F 17.4 °F 14.4 °F 50% 29.85 in 10.0 mi WNW 25.3 mph 38.0 mph N/A   Mostly Cloudy
7:15 PM 32.0 °F 17.0 °F 15.1 °F 50% 29.86 in 10.0 mi WNW 33.4 mph 39.1 mph N/A   Overcast
7:35 PM 31.1 °F 16.4 °F 16.3 °F 54% 29.86 in 10.0 mi WNW 29.9 mph 39.1 mph N/A   Mostly Cloudy
7:55 PM 31.1 °F 16.2 °F 17.4 °F 57% 29.88 in 10.0 mi WNW 31.1 mph 42.6 mph N/A   Mostly Cloudy
8:15 PM 30.4 °F 14.5 °F 18.0 °F 60% 29.89 in 10.0 mi WNW 34.5 mph 41.4 mph N/A   Mostly Cloudy
8:35 PM 30.6 °F 16.4 °F 18.0 °F 60% 29.90 in 10.0 mi NW 26.5 mph 33.4 mph N/A   Overcast
8:55 PM 31.1 °F 15.3 °F 18.0 °F 58% 29.93 in 10.0 mi NW 35.7 mph 44.9 mph N/A   Overcast
9:15 PM 30.6 °F 16.2 °F 17.6 °F 59% 29.94 in 10.0 mi NW 27.6 mph 39.1 mph N/A   Mostly Cloudy
9:35 PM 30.2 °F 16.8 °F 18.1 °F 61% 29.96 in 10.0 mi NW 23.0 mph 38.0 mph N/A   Scattered Clouds
9:55 PM 29.7 °F 16.4 °F 18.5 °F 63% 29.96 in 10.0 mi NW 21.9 mph 31.1 mph N/A   Scattered Clouds
10:15 PM 30.0 °F 15.2 °F 18.9 °F 63% 29.99 in 10.0 mi NW 28.8 mph 35.7 mph N/A   Clear
10:35 PM 29.7 °F 15.0 °F 19.0 °F 65% 30.00 in 10.0 mi NW 27.6 mph 33.4 mph N/A   Clear
10:55 PM 29.8 °F 14.7 °F 19.4 °F 65% 29.99 in 10.0 mi NW 29.9 mph 36.8 mph N/A   Clear
11:15 PM 29.7 °F 16.7 °F 19.4 °F 66% 29.99 in 10.0 mi NW 20.7 mph 25.3 mph N/A   Clear
11:35 PM 29.7 °F 15.8 °F 20.1 °F 68% 30.01 in 10.0 mi WNW 24.2 mph 32.2 mph N/A   Clear
11:55 PM 29.7 °F 16.4 °F 20.1 °F 68% 30.01 in 10.0 mi NW 21.9 mph 31.1 mph N/A   Clear